Location: Red Deer
(52.2681°N, 113.8112°W)
Time: 20:11:20
(UTC-07:00)

N. Korean satellite - Pass Details

Date: 02 December 2022
Orbit: 407 x 441 km, 97.3° (Epoch: 05 February)

Event Time Altitude Azimuth Distance (km) Brightness Sun altitude
Rises 05:26:22 0° 21° (NNE) 2,531 10.4 -26.0°
Reaches altitude 10° 05:28:36 10° 32° (NNE) 1,645 9.6 -25.7°
Maximum altitude 05:31:48 31° 96° (E) 849 8.4 -25.2°
Drops below altitude 10° 05:34:56 10° 160° (SSE) 1,615 9.5 -24.7°
Sets 05:37:06 0° 171° (S) 2,476 10.3 -24.4°
